Regional Weather Roundup
Issued by NWS

Home | Current Version | Previous Version | Graphics & Text | Print | Product List | Glossary On
Versions: 1 2 3 4 5 6 7 8 9 10 11 12 13 14 15 16 17 18 19 20 21 22 23 24 25 26 27 28 29 30 31 32 33 34 35 36 37 38 39 40 41 42 43 44 45 46 47 48 49 50
000
ASUS43 KMKX 211400
RWRWI

WISCONSIN REGIONAL WEATHER ROUNDUP
NATIONAL WEATHER SERVICE MILWAUKEE/SULLIVAN WI
900 AM CDT THU SEP 21 2017

NOTE: "FAIR" INDICATES FEW OR NO CLOUDS BELOW 12,000 FEET WITH NO
SIGNIFICANT WEATHER AND/OR OBSTRUCTIONS TO VISIBILITY.

WIZ001-002-006>008-014>016-023>028-211500-
NORTHWEST WISCONSIN

CITY           SKY/WX    TMP DP  RH WIND       PRES   REMARKS
SUPERIOR ARPT  SUNNY     52  52  99 CALM      30.04S
ASHLAND        SUNNY     54  51  90 CALM      30.05F
HAYWARD        SUNNY     57  51  80 CALM      30.04S
SIREN          SUNNY     51  49  94 SE5       30.02S
CUMBERLAND     SUNNY     54  50  87 E5        30.03R
RICE LAKE      SUNNY     52  51  98 CALM      30.04S
CHETEK         SUNNY     55  53  92 CALM      30.04S
LADYSMITH      SUNNY     59  54  84 NE6       30.06R
EAU CLAIRE     NOT AVBL
MENOMONIE      SUNNY     56  54  91 CALM      30.02S
NEW RICHMOND   SUNNY     55  53  94 E7        30.00F
OSCEOLA        SUNNY     56  56 100 SE6       30.03F
$$

WIZ003>005-009-010-017-018-211500-
NORTH CENTRAL WISCONSIN

CITY           SKY/WX    TMP DP  RH WIND       PRES   REMARKS
MANITOWISH WTR SUNNY     56  56 100 E5        30.06S
ARBOR VITAE    SUNNY     57  56  95 E3        30.06S
WOODRUFF       SUNNY     57  56  95 E3        30.06S
RHINELANDER    SUNNY     60  59  96 E9        30.07S
EAGLE RIVER    SUNNY     57  57 100 E5        30.07S
LAND O LAKES   MOSUNNY   58  58 100 E3        30.09F
PHILLIPS       SUNNY     55  55 100 CALM      30.05S
TOMAHAWK         N/A     57  56  97 E3        30.06S
MEDFORD        SUNNY     58  56  90 E8        30.03F
MERRILL        NOT AVBL
$$

WIZ029-030-035-036-043>047-211500-
CENTRAL WISCONSIN

CITY           SKY/WX    TMP DP  RH WIND       PRES   REMARKS
WAUSAU         CLOUDY    62  59  90 E7        30.03S
MOSINEE        CLOUDY    63  63 100 E9        30.05S
MARSHFIELD     PTSUNNY   63  59  87 E10       30.03R
STEVENS POINT  CLOUDY    63  63 100 NE7       30.04R FOG
WAUPACA        CLOUDY    68  68  98 NE5       30.03R FOG
WAUTOMA        CLOUDY    67  67 100 E7        30.03S FOG
WISC RAPIDS    FOG       67  66  97 SE6       30.04R VSB 3/4
CAMP DOUGLAS   FOG       61  61 100 CALM      30.02R VSB 1/2
$$

WIZ011>013-019>022-031-037>040-048>050-211500-
NORTHEAST WISCONSIN

CITY           SKY/WX    TMP DP  RH WIND       PRES   REMARKS
ANTIGO         PTSUNNY   63  59  87 E6        30.06F
SHAWANO        CLOUDY    68  65  89 NE6       30.04S
OCONTO         CLOUDY    67  62  85 NE5       30.02F
STURGEON BAY   CLOUDY    68  66  93 N6        30.03S
GREEN BAY      CLOUDY    68  66  93 NE12      30.03S
MANITOWOC      MOSUNNY   71  67  87 N3        30.03R
APPLETON       CLOUDY    66  66 100 E6        30.02R FOG
CLINTONVILLE   NOT AVBL
OSHKOSH        CLOUDY    69  68  96 E6        30.02R
$$

WIZ032>034-041-042-053>061-211500-
SOUTHWEST WISCONSIN

CITY           SKY/WX    TMP DP  RH WIND       PRES   REMARKS
LA CROSSE      PTSUNNY   63  59  88 CALM      30.01
SPARTA         CLOUDY    54  54 100 CALM      30.02S
VIROQUA        CLOUDY    64  64 100 E5        30.02R
BOSCOBEL       CLOUDY    71  68  90 VRB3      30.00R
PRAIRIE DU CHI CLOUDY    67  66  94 CALM      29.99R FOG
PLATTEVILLE    CLOUDY    69  69 100 CALM      30.00R
$$

WIZ056-057-062-063-064-067-068-211500-
SOUTH CENTRAL WISCONSIN

CITY           SKY/WX    TMP DP  RH WIND       PRES   REMARKS
REEDSBURG      CLOUDY    66  66 100 CALM      30.00S
BARABOO/DELLS  FOG       67  66  96 E5        30.02S VSB 1/4
LONE ROCK      CLOUDY    72  70  93 E3        29.99S FOG
MINERAL POINT  CLOUDY    70  70 100 CALM      30.00S
MADISON        CLOUDY    72  70  93 NE7       30.01R FOG
MIDDLETON      CLOUDY    72  72 100 CALM      30.01S VSB 1/4
WATERTOWN      CLOUDY    70  70 100 N3        30.00S
MONROE         CLOUDY    70  64  83 E5        30.01R
JANESVILLE     NOT AVBL
$$

WIZ051-052-058>065-066-070>072-211500-
SOUTHEAST WISCONSIN

CITY           SKY/WX    TMP DP  RH WIND       PRES   REMARKS
MILWAUKEE      CLOUDY    73  68  84 N6        30.01S
WAUKESHA       MOSUNNY   72  66  83 E2        30.04R
MILWAUKEE/TIMM SUNNY     72  64  78 E3        30.02S
RACINE         CLOUDY    76  69  79 N9        30.03R
BURLINGTON     MOSUNNY   72  70  94 CALM      30.02R
KENOSHA        CLOUDY    77  68  73 W3        30.02R
FOND DU LAC    CLOUDY    71  66  84 E5        30.02R
SHEBOYGAN      CLOUDY    72  69  90 CALM      30.02S
WEST BEND        N/A     68  68 100 NE3       30.02S
JUNEAU         CLOUDY    68  67  96 NE5       30.02F
$$

LSZ147-162-211500-
LAKE SUPERIOR

STATION/POSITION TIME  TEMP    WIND        PRES    WAVE
                       AIR SEA DIR/SP/G            HT/PER
                 (UTC) (F)     (DEG/KT/KT) (MB)    (FT/S)
W MID LAKE BUOY  1250   56 54  110/  6/  6 1017.3R   1
DEVILS ISLAND    1300   58     110/  4/  5 1017.4R
PORT WING        1140          110/  4/  7 1016.6F
SAXON HARBOR     1330   52     180/  1/  2 1016.9S
$$

LMZ867-665-643>646-211500-
LAKE MICHIGAN

STATION/POSITION TIME  TEMP    WIND        PRES    WAVE
                       AIR SEA DIR/SP/G            HT/PER
                 (UTC) (F)     (DEG/KT/KT) (MB)    (FT/S)
S GREEN BAY BUOY 1330   67 66   30/ 12/ 14 1016.4S
N MID LAKE BUOY  1250   66 65  360/  8/ 10 1016.4R   3/ 6
NORTHPORT PIER   1340   67     340/  6/  8 1016.3S
KEWAUNEE LAKESHO 1330   66      30/  2/  5 1015.5F
SHEBOYGAN LAKESH 1300   69      10/  7/  7 1015.9R
PORT WASHINGTON  1330   72      30/  5/  8 1016.9S
ATWATER BUOY     1209   69 66   30/ 10/ 12 1015.9R
MILWAUKEE LAKESH 1330   69      30/  5/  7   N/A
S MID LAKE BUOY  1250   71 69  190/ 10/ 10 1015.4R   1/ 3
KENOSHA   LAKESH 1300   72     160/  2/  3 1015.6
$$

TC  - TEMPERATURE IN CELSIUS
VSB - VISIBILITY IN STATUTE MILES
WCI - WIND CHILL INDEX
HX  - HEAT INDEX





USA.gov is the U.S. government's official web portal to all federal, state and local government web resources and services.